This is the latest recevied weather packets stored in our database for station/object KC5TIL-3. If no packets are shown the sender has not sent any weather packets the latest 10 day(s).
| Time | Temp. | Humidity | Pressure | Rain* | Wind** | Luminosity | Snow |
|---|---|---|---|---|---|---|---|
| 1777951145 | 24.44° C | 36% | 1003.8 hPa | 0 mm | 3.58 m/s, 143° | - | - |
| 1777950846 | 24.44° C | 36% | 1003.8 hPa | 0 mm | 2.68 m/s, 140° | - | - |
| 1777950544 | 24.44° C | 36% | 1003.8 hPa | 0 mm | 3.13 m/s, 220° | - | - |
| 1777950247 | 24.44° C | 36% | 1003.8 hPa | 0 mm | 3.13 m/s, 194° | - | - |
| 1777949948 | 24.44° C | 36% | 1003.8 hPa | 0 mm | 2.68 m/s, 236° | - | - |
| 1777949647 | 24.44° C | 35% | 1003.8 hPa | 0 mm | 3.13 m/s, 188° | - | - |
| 1777949349 | 24.44° C | 35% | 1003.8 hPa | 0 mm | 3.13 m/s, 216° | - | - |
| 1777948452 | 24.44° C | 35% | 1003.8 hPa | 0 mm | 2.24 m/s, 223° | - | - |
| 1777948153 | 24.44° C | 35% | 1003.8 hPa | 0 mm | 3.58 m/s, 235° | - | - |
| 1777947851 | 24.44° C | 35% | 1003.8 hPa | 0 mm | 3.13 m/s, 227° | - | - |
| 1777947553 | 24.44° C | 35% | 1003.8 hPa | 0 mm | 3.13 m/s, 150° | - | - |
| 1777947255 | 24.44° C | 35% | 1003.8 hPa | 0 mm | 4.47 m/s, 132° | - | - |
| 1777946949 | 24.44° C | 34% | 1003.8 hPa | 0 mm | 3.58 m/s, 231° | - | - |
| 1777946646 | 24.44° C | 34% | 1003.8 hPa | 0 mm | 3.13 m/s, 129° | - | - |
| 1777946343 | 24.44° C | 34% | 1003.8 hPa | 0 mm | 3.58 m/s, 148° | - | - |
| 1777946043 | 24.44° C | 34% | 1003.8 hPa | 0 mm | 3.13 m/s, 197° | - | - |
| 1777945744 | 24.44° C | 34% | 1002.8 hPa | 0 mm | 3.13 m/s, 215° | - | - |
| 1777945446 | 24.44° C | 34% | 1002.8 hPa | 0 mm | 3.13 m/s, 147° | - | - |
| 1777945145 | 24.44° C | 34% | 1002.8 hPa | 0 mm | 3.13 m/s, 167° | - | - |
| 1777944846 | 24.44° C | 34% | 1003.8 hPa | 0 mm | 3.58 m/s, 143° | - | - |
| 1777944543 | 25° C | 33% | 1003.8 hPa | 0 mm | 2.24 m/s, 137° | - | - |
| 1777944243 | 25° C | 33% | 1003.8 hPa | 0 mm | 3.58 m/s, 129° | - | - |
| 1777943944 | 25° C | 33% | 1003.8 hPa | 0 mm | 2.24 m/s, 233° | - | - |
| 1777943646 | 25° C | 33% | 1003.8 hPa | 0 mm | 3.13 m/s, 147° | - | - |
| 1777943344 | 25° C | 32% | 1003.8 hPa | 0 mm | 4.02 m/s, 177° | - | - |
* Rain latest hour (hover to see other rain measurements)
** Current wind speed in m/s (hover to see current wind gust speed)